Flag for Chad Weather past 2 weeks in Ndjamena, Chad

Now
91 °F

Clear.


Feels Like: 88 °F
Forecast: 75 / 101 °F
Wind: 1 mph from Northwest

Location: Ndjamena

Current Time: Mar 30, 2015 at 7:30:49 PM

Latest Report: Mar 30, 2015 at 7:00 PM


Visibility: 4 mi

Pressure: 29.83 "Hg

Humidity: 18%

Dew point: 43 °F

Location of NdjamenaLocation

Historic Weather in Ndjamena — Graph

°F

Ndjamena temperature yesterday

Maximum temperature yesterday: 97 °F (at 1:00 PM)
Minimum temperature yesterday: 75 °F (at 6:00 AM)
Average temperature yesterday: 85 °F

Past Weeks' High & Low Weather Summary

 TemperatureHumidityPressure
High109 °F (Mar 24, 3:00 PM)59% (Mar 26, 8:00 AM)30.09 "Hg (Mar 26, 8:00 AM)
Low64 °F (Mar 16, 4:00 PM)9% (Mar 22, 1:00 PM)29.62 "Hg (Mar 24, 3:00 PM)
Average91 °F26%29.75 "Hg
* Reported Mar 15 6:00 PM — Mar 30 6:00 PM, Ndjamena, Weather by CustomWeather, © 2015

Note: Actual official high and low records may vary slightly from our data, if they occured in-between our weather recording intervals... More about our weather records

Advertising

Ndjamena weather history for previous 24 hours

 ConditionsComfort  
Time TempWeatherWind HumidityBarometerVisibility
6:00 PM
Mon, Mar 30
93 °FClear.7 mph19%29.80 "Hg4 mi
5:00 PM97 °FClear.12 mph16%29.80 "Hg4 mi
4:00 PM99 °FClear.9 mph16%29.77 "Hg4 mi
3:00 PM100 °FClear.9 mph14%29.77 "Hg4 mi
2:00 PM100 °FClear.7 mph12%29.80 "Hg4 mi
1:00 PM99 °FClear.7 mph15%29.83 "Hg4 mi
12:00 PM97 °FDuststorm.8 mph17%29.86 "Hg3 mi
11:00 AM93 °FDuststorm.9 mph19%29.89 "Hg3 mi
10:00 AM91 °FClear.15 mph20%29.92 "Hg4 mi
9:00 AM88 °FClear.13 mph22%29.92 "Hg4 mi
8:00 AM81 °FClear.10 mph28%29.92 "Hg4 mi
7:00 AM75 °FClear.6 mph34%29.89 "Hg4 mi
6:00 AM72 °FClear.2 mph38%29.86 "Hg4 mi
5:00 AM73 °FClear.No wind41%29.86 "Hg10 mi
4:00 AM73 °FClear.No wind47%29.86 "Hg10 mi
3:00 AM75 °FClear.No wind44%29.86 "Hg10 mi
2:00 AM75 °FClear.No wind44%29.86 "Hg10 mi
1:00 AM77 °FClear.No wind39%29.86 "Hg10 mi
12:00 AM79 °FClear.No wind37%29.86 "Hg5 mi
11:00 PM
Sun, Mar 29
79 °FClear.No wind37%29.86 "Hg5 mi
10:00 PM81 °FClear.7 mph32%29.86 "Hg5 mi
9:00 PM84 °FClear.3 mph27%29.86 "Hg5 mi
8:00 PM86 °FClear.7 mph24%29.83 "Hg5 mi
7:00 PM88 °FClear.10 mph22%29.80 "Hg4 mi
Weather by CustomWeather, © 2015

See weather overviewHow to use our weather pages